Previsão horária em Alloza

Hoje, 18 Janeiro, Segunda-feira

Tempo Temperatura Precipitação Vento Pressão Humidade
00:00 +3°C° 0 mm 5 m/s 708 mmHg 84%
01:00 +3°C° 0 mm 5 m/s 708 mmHg 84%
02:00 +3°C° 0 mm 4 m/s 708 mmHg 85%
03:00 +3°C° 0 mm 4 m/s 708 mmHg 86%
04:00 +3°C° 0 mm 4 m/s 708 mmHg 85%
05:00 +1°C° 0 mm 4 m/s 708 mmHg 85%
06:00 +2°C° 0 mm 3 m/s 708 mmHg 84%
07:00 +3°C° 0 mm 3 m/s 708 mmHg 83%
08:00 +3°C° 0 mm 3 m/s 708 mmHg 81%
09:00 +4°C° 0 mm 3 m/s 709 mmHg 80%
10:00 +5°C° 0 mm 3 m/s 709 mmHg 77%
11:00 +6°C° 0 mm 4 m/s 709 mmHg 73%
12:00 +7°C° 0 mm 4 m/s 709 mmHg 70%
13:00 +8°C° 0 mm 3 m/s 708 mmHg 68%
14:00 +8°C° 0 mm 3 m/s 708 mmHg 66%
15:00 +8°C° 0 mm 3 m/s 707 mmHg 65%
16:00 +7°C° 0 mm 2 m/s 707 mmHg 67%
17:00 +5°C° 0 mm 2 m/s 707 mmHg 70%
18:00 +3°C° 0 mm 2 m/s 707 mmHg 73%
19:00 +3°C° 0 mm 2 m/s 708 mmHg 71%
20:00 +3°C° 0 mm 2 m/s 708 mmHg 69%
21:00 +3°C° 0 mm 2 m/s 708 mmHg 68%
22:00 +2°C° 0 mm 2 m/s 708 mmHg 68%
23:00 +3°C° 0 mm 1 m/s 708 mmHg 68%

Amanhã, 19 Janeiro, Terça-feira

Tempo Temperatura Precipitação Vento Pressão Humidade
00:00 +3°C° 0 mm 1 m/s 708 mmHg 68%
01:00 +3°C° 0 mm 1 m/s 708 mmHg 68%
02:00 +3°C° 0 mm 1 m/s 707 mmHg 68%
03:00 +3°C° 0 mm 1 m/s 707 mmHg 68%
04:00 +3°C° 0 mm 1 m/s 707 mmHg 68%
05:00 +2°C° 0 mm 1 m/s 707 mmHg 68%
06:00 +2°C° 0 mm 1 m/s 707 mmHg 68%
07:00 +4°C° 0 mm 1 m/s 707 mmHg 64%
08:00 +5°C° 0 mm 1 m/s 707 mmHg 60%
09:00 +5°C° 0 mm 2 m/s 707 mmHg 57%
10:00 +8°C° 0 mm 1 m/s 707 mmHg 55%
11:00 +9°C° 0 mm 1 m/s 707 mmHg 53%
12:00 +10°C° 0 mm 1 m/s 707 mmHg 51%
13:00 +10°C° 0 mm 1 m/s 706 mmHg 53%
14:00 +9°C° 0 mm 2 m/s 705 mmHg 54%
15:00 +9°C° 0 mm 2 m/s 705 mmHg 55%
16:00 +7°C° 0 mm 2 m/s 704 mmHg 61%
17:00 +6°C° 0 mm 2 m/s 704 mmHg 67%
18:00 +4°C° 0 mm 2 m/s 704 mmHg 73%
19:00 +4°C° 0 mm 2 m/s 704 mmHg 72%
20:00 +3°C° 0 mm 2 m/s 704 mmHg 72%
21:00 +2°C° 0 mm 3 m/s 703 mmHg 72%
22:00 +3°C° 0 mm 2 m/s 703 mmHg 72%
23:00 +3°C° 0 mm 2 m/s 703 mmHg 72%

Depois de amanhã, 20 Janeiro, Quarta-feira

Tempo Temperatura Precipitação Vento Pressão Humidade
00:00 +3°C° 0 mm 2 m/s 702 mmHg 73%
01:00 +3°C° 0 mm 2 m/s 702 mmHg 73%
02:00 +2°C° 0 mm 2 m/s 701 mmHg 74%
03:00 +2°C° 0 mm 2 m/s 700 mmHg 74%
04:00 +1°C° 0 mm 3 m/s 700 mmHg 74%
05:00 +1°C° 0 mm 3 m/s 700 mmHg 74%
06:00 +1°C° 0 mm 3 m/s 699 mmHg 74%
07:00 +2°C° 0 mm 3 m/s 699 mmHg 74%
08:00 +3°C° 0 mm 3 m/s 699 mmHg 73%
09:00 +4°C° 0 mm 3 m/s 699 mmHg 73%
10:00 +5°C° 0.1 mm 4 m/s 699 mmHg 73%
11:00 +5°C° 0.1 mm 6 m/s 699 mmHg 73%
12:00 +5°C° 0.1 mm 7 m/s 698 mmHg 74%
13:00 +6°C° 0 mm 7 m/s 698 mmHg 75%
14:00 +6°C° 0 mm 7 m/s 697 mmHg 76%
15:00 +6°C° 0 mm 7 m/s 696 mmHg 77%
16:00 +5°C° 0 mm 6 m/s 696 mmHg 79%
17:00 +5°C° 0 mm 6 m/s 696 mmHg 81%
18:00 +4°C° 0 mm 6 m/s 696 mmHg 83%
19:00 +4°C° 0 mm 6 m/s 696 mmHg 82%
20:00 +4°C° 0 mm 6 m/s 696 mmHg 81%
21:00 +4°C° 0 mm 6 m/s 696 mmHg 81%
22:00 +4°C° 0 mm 6 m/s 696 mmHg 80%
23:00 +4°C° 0 mm 6 m/s 696 mmHg 80%

21 Janeiro, Quinta-feira

Tempo Temperatura Precipitação Vento Pressão Humidade
00:00 +4°C° 0 mm 6 m/s 697 mmHg 79%
01:00 +4°C° 0 mm 7 m/s 697 mmHg 79%
02:00 +4°C° 0 mm 8 m/s 697 mmHg 79%
03:00 +3°C° 0 mm 9 m/s 697 mmHg 79%
04:00 +4°C° 0 mm 8 m/s 697 mmHg 80%
05:00 +4°C° 0 mm 7 m/s 697 mmHg 80%
06:00 +4°C° 0 mm 7 m/s 697 mmHg 81%
07:00 +5°C° 0 mm 7 m/s 697 mmHg 79%
08:00 +5°C° 0 mm 7 m/s 698 mmHg 77%
09:00 +6°C° 0 mm 7 m/s 698 mmHg 75%
10:00 +7°C° 0 mm 9 m/s 698 mmHg 71%
11:00 +8°C° 0 mm 10 m/s 698 mmHg 67%
12:00 +9°C° 0 mm 12 m/s 697 mmHg 63%
13:00 +9°C° 0 mm 12 m/s 697 mmHg 63%
14:00 +9°C° 0 mm 11 m/s 696 mmHg 64%
15:00 +9°C° 0 mm 11 m/s 695 mmHg 64%
16:00 +9°C° 0 mm 12 m/s 695 mmHg 67%
17:00 +8°C° 0 mm 12 m/s 695 mmHg 70%
18:00 +8°C° 0 mm 12 m/s 694 mmHg 73%
19:00 +8°C° 0 mm 12 m/s 695 mmHg 73%
20:00 +8°C° 0 mm 12 m/s 695 mmHg 72%
21:00 +8°C° 0 mm 12 m/s 695 mmHg 72%
22:00 +7°C° 0 mm 11 m/s 695 mmHg 72%
23:00 +6°C° 0 mm 11 m/s 695 mmHg 72%

22 Janeiro, Sexta-feira

Tempo Temperatura Precipitação Vento Pressão Humidade
00:00 +6°C° 0 mm 10 m/s 695 mmHg 72%
01:00 +6°C° 0 mm 10 m/s 695 mmHg 71%
02:00 +4°C° 0 mm 11 m/s 695 mmHg 70%
03:00 +4°C° 0 mm 11 m/s 695 mmHg 69%
04:00 +4°C° 0 mm 11 m/s 695 mmHg 70%
05:00 +4°C° 0 mm 11 m/s 695 mmHg 70%
06:00 +3°C° 0 mm 11 m/s 695 mmHg 71%
07:00 +3°C° 0.1 mm 11 m/s 695 mmHg 72%
08:00 +4°C° 0.1 mm 11 m/s 696 mmHg 73%
09:00 +4°C° 0.1 mm 11 m/s 696 mmHg 75%
10:00 +4°C° 0.3 mm 11 m/s 696 mmHg 73%
11:00 +4°C° 0.3 mm 11 m/s 696 mmHg 71%
12:00 +4°C° 0.3 mm 11 m/s 697 mmHg 70%
13:00 +6°C° 0 mm 11 m/s 697 mmHg 65%
14:00 +6°C° 0 mm 11 m/s 697 mmHg 61%
15:00 +6°C° 0 mm 11 m/s 697 mmHg 56%
16:00 +5°C° 0 mm 10 m/s 697 mmHg 59%
17:00 +3°C° 0 mm 9 m/s 698 mmHg 62%
18:00 +2°C° 0 mm 8 m/s 698 mmHg 65%
19:00 +2°C° 0 mm 8 m/s 699 mmHg 67%
20:00 +2°C° 0 mm 8 m/s 699 mmHg 70%
21:00 +2°C° 0 mm 8 m/s 700 mmHg 72%
22:00 +2°C° 0 mm 9 m/s 700 mmHg 72%
23:00 +2°C° 0 mm 9 m/s 700 mmHg 72%

23 Janeiro, Sábado

Tempo Temperatura Precipitação Vento Pressão Humidade
00:00 +1°C° 0 mm 9 m/s 700 mmHg 72%
01:00 +1°C° 0 mm 9 m/s 700 mmHg 72%
02:00 +1°C° 0 mm 9 m/s 700 mmHg 72%
03:00 +1°C° 0 mm 9 m/s 699 mmHg 72%
04:00 +1°C° 0 mm 10 m/s 699 mmHg 71%
05:00 +1°C° 0 mm 10 m/s 699 mmHg 71%
06:00 +1°C° 0 mm 11 m/s 699 mmHg 70%
07:00 +2°C° 0 mm 11 m/s 699 mmHg 68%
08:00 +2°C° 0 mm 12 m/s 700 mmHg 66%
09:00 +3°C° 0 mm 12 m/s 700 mmHg 64%
10:00 +4°C° 0 mm 13 m/s 700 mmHg 62%
11:00 +5°C° 0 mm 14 m/s 700 mmHg 60%
12:00 +6°C° 0 mm 14 m/s 700 mmHg 58%
13:00 +8°C° 0 mm 14 m/s 700 mmHg 57%
14:00 +8°C° 0 mm 14 m/s 699 mmHg 57%
15:00 +8°C° 0 mm 14 m/s 699 mmHg 57%
16:00 +8°C° 0 mm 13 m/s 699 mmHg 60%
17:00 +7°C° 0 mm 13 m/s 699 mmHg 64%
18:00 +5°C° 0 mm 13 m/s 699 mmHg 67%
19:00 +5°C° 0 mm 13 m/s 699 mmHg 67%
20:00 +5°C° 0 mm 13 m/s 699 mmHg 68%
21:00 +5°C° 0 mm 13 m/s 699 mmHg 68%
22:00 +7°C° 0 mm 13 m/s 698 mmHg 69%
23:00 +7°C° 0 mm 13 m/s 698 mmHg 70%
Mostrar mais

Necessitamos do seu Consentimento

A Meteoprog e os seus Fornecedores de Serviços podem armazenar e aceder a dados pessoais como cookies, identificadores do dispositivo ou outras tecnologias semelhantes existentes no seu dispositivo e processar estes dados para personalizar conteúdos e anúncios, assim como funcionalidades nas redes sociais e análise de tráfego.

  • Armazenar e/ou aceder a informações no seu dispositivo

    Os cookies, identificadores do dispositivo ou outras informações podem ser armazenados ou acedidos no seu dispositivo, para os fins acima indicados.

  • Anúncios e conteúdos personalizados, medição de anúncios e conteúdos, dados sobre o público-alvo e desenvolvimento de produtos

    Os anúncios e os conteúdos podem ser personalizados com base num perfil. Podem ser adicionados dados adicionais para uma maior personalização dos anúncios e dos conteúdos. A eficácia dos anúncios e dos conteúdos pode ser medida. Podem ser obtidas informações sobre o público que visualizou os anúncios e os conteúdos. Estes dados podem ser usados para desenvolver ou melhorar sistemas, softwares ou a experiência do utilizador.

Ao clicar em "Eu concordo”, permitirá o uso de cookies, identificadores do dispositivo e web beacons mencionados ou outras tecnologias semelhantes. As configurações do navegador do seu dispositivo podem ser alteradas.

Para certos fins, podem ser invocados interesses legítimos ao invés de consentimento. Pode ler mais informação sobre este assunto na nossa Política de Privacidade e Cookies.